sat.trackr.live / text

‹ back to catalog

STARLINK-35214

NORAD 65747 · 2025-216P

PAYLOAD ACTIVE UNKNOWN

§ Identity

Operator
Country
US
Launch date
2025-09-25
Launch site
AFETR
Launch vehicle
Mass (kg)
RCS (m²)

Purposes: comms

External: N2YO · Heavens-Above · Gunter

§ Orbital elements

Epoch: 2026-05-24T20:20:20.616576Z

Period
94.10 min
Inclination
53.1604°
Eccentricity
0.0001008
Mean motion
15.30209229 rev/d
Perigee alt
474.5 km
Apogee alt
475.9 km
Semi-major
6,853.3 km
B*
8.8492e-4
RAAN
339.1451°
Arg perigee
93.5210°
Mean anomaly
266.5906°
Rev number
3,820

§ Raw data

STARLINK-352141 65747U 25216P   26144.84746084  .00025949  00000+0  88492-3 0  99952 65747  53.1604 339.1451 0001008  93.5210 266.5906 15.30209229 38205

JSON: /api/v1/satellites/65747 · /tle

For live sub-satellite position, see the globe view (requires WebGL).

§ Visibility from observer

Set your observer location to see the next 7 days of passes ≥ 10°. The values pass through the URL so the page stays shareable.

No JS? Fill the form by hand. The geolocation button needs JavaScript.